Year,Month,Day,Hour,Minute,Value (Times are PST for temperature in C)
2007,06,13,00,00,10.40
2007,06,13,00,01,10.40
2007,06,13,00,02,10.30
2007,06,13,00,03,10.30
2007,06,13,00,04,10.30
2007,06,13,00,05,10.30
2007,06,13,00,06,10.30
2007,06,13,00,07,10.30
2007,06,13,00,08,10.30
2007,06,13,00,09,10.30
2007,06,13,00,10,10.20
2007,06,13,00,11,10.20
2007,06,13,00,12,10.20
2007,06,13,00,13,10.20
2007,06,13,00,14,10.20
2007,06,13,00,15,10.20
2007,06,13,00,16,10.20
2007,06,13,00,17,10.20
2007,06,13,00,18,10.20
2007,06,13,00,19,10.20
2007,06,13,00,20,10.20
2007,06,13,00,21,10.20
2007,06,13,00,22,10.20
2007,06,13,00,23,10.20
2007,06,13,00,24,10.20
2007,06,13,00,25,10.20
2007,06,13,00,26,10.20
2007,06,13,00,27,10.20
2007,06,13,00,28,10.20
2007,06,13,00,29,10.20
2007,06,13,00,30,10.20
2007,06,13,00,31,10.20
2007,06,13,00,32,10.20
2007,06,13,00,33,10.20
2007,06,13,00,34,10.20
2007,06,13,00,35,10.20
2007,06,13,00,36,10.20
2007,06,13,00,37,10.20
2007,06,13,00,38,10.20
2007,06,13,00,39,10.20
2007,06,13,00,40,10.20
2007,06,13,00,41,10.20
2007,06,13,00,42,10.20
2007,06,13,00,43,10.20
2007,06,13,00,44,10.20
2007,06,13,00,45,10.20
2007,06,13,00,46,10.20
2007,06,13,00,47,10.20
2007,06,13,00,48,10.20
2007,06,13,00,49,10.20
2007,06,13,00,50,10.20
2007,06,13,00,51,10.20
2007,06,13,00,52,10.20
2007,06,13,00,53,10.20
2007,06,13,00,54,10.20
2007,06,13,00,55,10.20
2007,06,13,00,56,10.20
2007,06,13,00,57,10.20
2007,06,13,00,58,10.20
2007,06,13,00,59,10.20
2007,06,13,01,00,10.20
2007,06,13,01,01,10.20
2007,06,13,01,02,10.20
2007,06,13,01,03,10.20
2007,06,13,01,04,10.20
2007,06,13,01,05,10.20
2007,06,13,01,06,10.20
2007,06,13,01,07,10.20
2007,06,13,01,08,10.20
2007,06,13,01,09,10.20
2007,06,13,01,10,10.20
2007,06,13,01,11,10.20
2007,06,13,01,12,10.20
2007,06,13,01,13,10.20
2007,06,13,01,14,10.20
2007,06,13,01,15,10.20
2007,06,13,01,16,10.20
2007,06,13,01,17,10.20
2007,06,13,01,18,10.20
2007,06,13,01,19,10.20
2007,06,13,01,20,10.10
2007,06,13,01,21,10.10
2007,06,13,01,22,10.10
2007,06,13,01,23,10.10
2007,06,13,01,24,10.10
2007,06,13,01,25,10.10
2007,06,13,01,26,10.10
2007,06,13,01,27,10.10
2007,06,13,01,28,10.10
2007,06,13,01,29,10.10
2007,06,13,01,30,10.10
2007,06,13,01,31,10.10
2007,06,13,01,32,10.10
2007,06,13,01,33,10.10
2007,06,13,01,34,10.10
2007,06,13,01,35,10.10
2007,06,13,01,36,10.10
2007,06,13,01,37,10.10
2007,06,13,01,38,10.10
2007,06,13,01,39,10.10
2007,06,13,01,40,10.10
2007,06,13,01,41,10.10
2007,06,13,01,42,10.10
2007,06,13,01,43,10.10
2007,06,13,01,44,10.10
2007,06,13,01,45,10.10
2007,06,13,01,46,10.10
2007,06,13,01,47,10.10
2007,06,13,01,48,10.10
2007,06,13,01,49,10.10
2007,06,13,01,50,10.10
2007,06,13,01,51,10.10
2007,06,13,01,52,10.10
2007,06,13,01,53,10.10
2007,06,13,01,54,10.10
2007,06,13,01,55,10.10
2007,06,13,01,56,10.10
2007,06,13,01,57,10.00
2007,06,13,01,58,10.00
2007,06,13,01,59,10.00
2007,06,13,02,00,10.00
2007,06,13,02,01,10.00
2007,06,13,02,02,10.00
2007,06,13,02,03,9.90
2007,06,13,02,04,9.90
2007,06,13,02,05,9.90
2007,06,13,02,06,9.90
2007,06,13,02,07,9.90
2007,06,13,02,08,9.90
2007,06,13,02,09,9.90
2007,06,13,02,10,9.90
2007,06,13,02,11,9.90
2007,06,13,02,12,9.90
2007,06,13,02,13,9.90
2007,06,13,02,14,9.80
2007,06,13,02,15,9.80
2007,06,13,02,16,9.80
2007,06,13,02,17,9.80
2007,06,13,02,18,9.80
2007,06,13,02,19,9.80
2007,06,13,02,20,9.80
2007,06,13,02,21,9.80
2007,06,13,02,22,9.80
2007,06,13,02,23,9.80
2007,06,13,02,24,9.80
2007,06,13,02,25,9.80
2007,06,13,02,26,9.80
2007,06,13,02,27,9.80
2007,06,13,02,28,9.80
2007,06,13,02,29,9.80
2007,06,13,02,30,9.70
2007,06,13,02,31,9.70
2007,06,13,02,32,9.70
2007,06,13,02,33,9.70
2007,06,13,02,34,9.70
2007,06,13,02,35,9.70
2007,06,13,02,36,9.70
2007,06,13,02,37,9.70
2007,06,13,02,38,9.70
2007,06,13,02,39,9.70
2007,06,13,02,40,9.70
2007,06,13,02,41,9.70
2007,06,13,02,42,9.70
2007,06,13,02,43,9.70
2007,06,13,02,44,9.70
2007,06,13,02,45,9.70
2007,06,13,02,46,9.70
2007,06,13,02,47,9.70
2007,06,13,02,48,9.70
2007,06,13,02,49,9.70
2007,06,13,02,50,9.70
2007,06,13,02,51,9.70
2007,06,13,02,52,9.70
2007,06,13,02,53,9.70
2007,06,13,02,54,9.70
2007,06,13,02,55,9.70
2007,06,13,02,56,9.70
2007,06,13,02,57,9.70
2007,06,13,02,58,9.70
2007,06,13,02,59,9.70
2007,06,13,03,00,9.70
2007,06,13,03,01,9.70
2007,06,13,03,02,9.70
2007,06,13,03,03,9.70
2007,06,13,03,04,9.70
2007,06,13,03,05,9.70
2007,06,13,03,06,9.70
2007,06,13,03,07,9.70
2007,06,13,03,08,9.70
2007,06,13,03,09,9.70
2007,06,13,03,10,9.70
2007,06,13,03,11,9.70
2007,06,13,03,12,9.70
2007,06,13,03,13,9.70
2007,06,13,03,14,9.70
2007,06,13,03,15,9.70
2007,06,13,03,16,9.70
2007,06,13,03,17,9.70
2007,06,13,03,18,9.70
2007,06,13,03,19,9.70
2007,06,13,03,20,9.70
2007,06,13,03,21,9.70
2007,06,13,03,22,9.70
2007,06,13,03,23,9.70
2007,06,13,03,24,9.70
2007,06,13,03,25,9.70
2007,06,13,03,26,9.80
2007,06,13,03,27,9.80
2007,06,13,03,28,9.80
2007,06,13,03,29,9.80
2007,06,13,03,30,9.80
2007,06,13,03,31,9.80
2007,06,13,03,32,9.80
2007,06,13,03,33,9.80
2007,06,13,03,34,9.80
2007,06,13,03,35,9.80
2007,06,13,03,36,9.80
2007,06,13,03,37,9.80
2007,06,13,03,38,9.80
2007,06,13,03,39,9.80
2007,06,13,03,40,9.80
2007,06,13,03,41,9.80
2007,06,13,03,42,9.80
2007,06,13,03,43,9.80
2007,06,13,03,44,9.90
2007,06,13,03,45,9.90
2007,06,13,03,46,9.90
2007,06,13,03,47,9.90
2007,06,13,03,48,9.90
2007,06,13,03,49,9.90
2007,06,13,03,50,9.90
2007,06,13,03,51,9.90
2007,06,13,03,52,9.90
2007,06,13,03,53,9.90
2007,06,13,03,54,9.90
2007,06,13,03,55,9.90
2007,06,13,03,56,9.90
2007,06,13,03,57,9.90
2007,06,13,03,58,10.00
2007,06,13,03,59,10.00
2007,06,13,04,00,10.00
2007,06,13,04,01,10.00
2007,06,13,04,02,10.00
2007,06,13,04,03,10.00
2007,06,13,04,04,10.00
2007,06,13,04,05,10.00
2007,06,13,04,06,10.00
2007,06,13,04,07,10.10
2007,06,13,04,08,10.10
2007,06,13,04,09,10.10
2007,06,13,04,10,10.10
2007,06,13,04,11,10.10
2007,06,13,04,12,10.10
2007,06,13,04,13,10.10
2007,06,13,04,14,10.10
2007,06,13,04,15,10.10
2007,06,13,04,16,10.10
2007,06,13,04,17,10.10
2007,06,13,04,18,10.10
2007,06,13,04,19,10.10
2007,06,13,04,20,10.00
2007,06,13,04,21,10.00
2007,06,13,04,22,10.00
2007,06,13,04,23,10.00
2007,06,13,04,24,10.00
2007,06,13,04,25,10.00
2007,06,13,04,26,10.00
2007,06,13,04,27,10.00
2007,06,13,04,28,10.00
2007,06,13,04,29,10.00
2007,06,13,04,30,10.00
2007,06,13,04,31,10.00
2007,06,13,04,32,10.00
2007,06,13,04,33,10.00
2007,06,13,04,34,10.00
2007,06,13,04,35,10.00
2007,06,13,04,36,10.00
2007,06,13,04,37,10.00
2007,06,13,04,38,10.00
2007,06,13,04,39,10.00
2007,06,13,04,40,10.00
2007,06,13,04,41,10.00
2007,06,13,04,42,10.00
2007,06,13,04,43,10.10
2007,06,13,04,44,10.10
2007,06,13,04,45,10.10
2007,06,13,04,46,10.10
2007,06,13,04,47,10.00
2007,06,13,04,48,10.10
2007,06,13,04,49,10.00
2007,06,13,04,50,10.00
2007,06,13,04,51,10.00
2007,06,13,04,52,10.00
2007,06,13,04,53,10.00
2007,06,13,04,54,10.00
2007,06,13,04,55,10.00
2007,06,13,04,56,9.90
2007,06,13,04,57,9.90
2007,06,13,04,58,9.90
2007,06,13,04,59,9.90
2007,06,13,05,00,9.90
2007,06,13,05,01,9.90
2007,06,13,05,02,9.90
2007,06,13,05,03,9.90
2007,06,13,05,04,9.90
2007,06,13,05,05,9.90
2007,06,13,05,06,9.90
2007,06,13,05,07,9.90
2007,06,13,05,08,9.80
2007,06,13,05,09,9.80
2007,06,13,05,10,9.80
2007,06,13,05,11,9.80
2007,06,13,05,12,9.80
2007,06,13,05,13,9.80
2007,06,13,05,14,9.80
2007,06,13,05,15,9.80
2007,06,13,05,16,9.80
2007,06,13,05,17,9.80
2007,06,13,05,18,9.80
2007,06,13,05,19,9.90
2007,06,13,05,20,9.90
2007,06,13,05,21,9.90
2007,06,13,05,22,9.90
2007,06,13,05,23,9.90
2007,06,13,05,24,9.90
2007,06,13,05,25,9.90
2007,06,13,05,26,9.90
2007,06,13,05,27,9.90
2007,06,13,05,28,9.90
2007,06,13,05,29,9.90
2007,06,13,05,30,9.90
2007,06,13,05,31,9.90
2007,06,13,05,32,10.00
2007,06,13,05,33,10.00
2007,06,13,05,34,10.00
2007,06,13,05,35,10.00
2007,06,13,05,36,10.00
2007,06,13,05,37,10.00
2007,06,13,05,38,10.10
2007,06,13,05,39,10.10
2007,06,13,05,40,10.10
2007,06,13,05,41,10.10
2007,06,13,05,42,10.10
2007,06,13,05,43,10.10
2007,06,13,05,44,10.10
2007,06,13,05,45,10.10
2007,06,13,05,46,10.10
2007,06,13,05,47,10.10
2007,06,13,05,48,10.10
2007,06,13,05,49,10.10
2007,06,13,05,50,10.10
2007,06,13,05,51,10.10
2007,06,13,05,52,10.10
2007,06,13,05,53,10.10
2007,06,13,05,54,10.10
2007,06,13,05,55,10.10
2007,06,13,05,56,10.10
2007,06,13,05,57,10.10
2007,06,13,05,58,10.10
2007,06,13,05,59,10.10
2007,06,13,06,00,10.10
2007,06,13,06,01,10.20
2007,06,13,06,02,10.20
2007,06,13,06,03,10.20
2007,06,13,06,04,10.20
2007,06,13,06,05,10.20
2007,06,13,06,06,10.20
2007,06,13,06,07,10.20
2007,06,13,06,08,10.20
2007,06,13,06,09,10.30
2007,06,13,06,10,10.30
2007,06,13,06,11,10.30
2007,06,13,06,12,10.30
2007,06,13,06,13,10.30
2007,06,13,06,14,10.30
2007,06,13,06,15,10.30
2007,06,13,06,16,10.40
2007,06,13,06,17,10.40
2007,06,13,06,18,10.40
2007,06,13,06,19,10.40
2007,06,13,06,20,10.50
2007,06,13,06,21,10.50
2007,06,13,06,22,10.60
2007,06,13,06,23,10.60
2007,06,13,06,24,10.60
2007,06,13,06,25,10.60
2007,06,13,06,26,10.70
2007,06,13,06,27,10.70
2007,06,13,06,28,10.70
2007,06,13,06,29,10.80
2007,06,13,06,30,10.90
2007,06,13,06,31,11.00
2007,06,13,06,32,11.00
2007,06,13,06,33,11.10
2007,06,13,06,34,11.20
2007,06,13,06,35,11.20
2007,06,13,06,36,11.30
2007,06,13,06,37,11.30
2007,06,13,06,38,11.30
2007,06,13,06,39,11.40
2007,06,13,06,40,11.40
2007,06,13,06,41,11.40
2007,06,13,06,42,11.40
2007,06,13,06,43,11.40
2007,06,13,06,44,11.40
2007,06,13,06,45,11.40
2007,06,13,06,46,11.40
2007,06,13,06,47,11.40
2007,06,13,06,48,11.40
2007,06,13,06,49,11.40
2007,06,13,06,50,11.40
2007,06,13,06,51,11.40
2007,06,13,06,52,11.40
2007,06,13,06,53,11.40
2007,06,13,06,54,11.40
2007,06,13,06,55,11.40
2007,06,13,06,56,11.50
2007,06,13,06,57,11.50
2007,06,13,06,58,11.50
2007,06,13,06,59,11.50
2007,06,13,07,00,11.50
2007,06,13,07,01,11.50
2007,06,13,07,02,11.50
2007,06,13,07,03,11.60
2007,06,13,07,04,11.60
2007,06,13,07,05,11.60
2007,06,13,07,06,11.60
2007,06,13,07,07,11.60
2007,06,13,07,08,11.60
2007,06,13,07,09,11.60
2007,06,13,07,10,11.60
2007,06,13,07,11,11.60
2007,06,13,07,12,11.70
2007,06,13,07,13,11.70
2007,06,13,07,14,11.70
2007,06,13,07,15,11.70
2007,06,13,07,16,11.80
2007,06,13,07,17,11.80
2007,06,13,07,18,11.80
2007,06,13,07,19,11.80
2007,06,13,07,20,11.80
2007,06,13,07,21,11.80
2007,06,13,07,22,11.90
2007,06,13,07,23,12.00
2007,06,13,07,24,12.00
2007,06,13,07,25,12.10
2007,06,13,07,26,12.20
2007,06,13,07,27,12.20
2007,06,13,07,28,12.20
2007,06,13,07,29,12.20
2007,06,13,07,30,12.30
2007,06,13,07,31,12.30
2007,06,13,07,32,12.30
2007,06,13,07,33,12.30
2007,06,13,07,34,12.30
2007,06,13,07,35,12.40
2007,06,13,07,36,12.40
2007,06,13,07,37,12.50
2007,06,13,07,38,12.50
2007,06,13,07,39,12.50
2007,06,13,07,40,12.60
2007,06,13,07,41,12.60
2007,06,13,07,42,12.60
2007,06,13,07,43,12.60
2007,06,13,07,44,12.70
2007,06,13,07,45,12.70
2007,06,13,07,46,12.70
2007,06,13,07,47,12.80
2007,06,13,07,48,12.80
2007,06,13,07,49,12.80
2007,06,13,07,50,12.80
2007,06,13,07,51,12.80
2007,06,13,07,52,12.80
2007,06,13,07,53,12.80
2007,06,13,07,54,12.90
2007,06,13,07,55,12.90
2007,06,13,07,56,12.90
2007,06,13,07,57,12.90
2007,06,13,07,58,12.90
2007,06,13,07,59,12.90
2007,06,13,08,00,13.00
2007,06,13,08,01,13.00
2007,06,13,08,02,13.00
2007,06,13,08,03,13.00
2007,06,13,08,04,13.00
2007,06,13,08,05,13.00
2007,06,13,08,06,13.00
2007,06,13,08,07,13.10
2007,06,13,08,08,13.10
2007,06,13,08,09,13.10
2007,06,13,08,10,13.10
2007,06,13,08,11,13.10
2007,06,13,08,12,13.10
2007,06,13,08,13,13.10
2007,06,13,08,14,13.20
2007,06,13,08,15,13.20
2007,06,13,08,16,13.20
2007,06,13,08,17,13.20
2007,06,13,08,18,13.20
2007,06,13,08,19,13.20
2007,06,13,08,20,13.20
2007,06,13,08,21,13.20
2007,06,13,08,22,13.20
2007,06,13,08,23,13.20
2007,06,13,08,24,13.30
2007,06,13,08,25,13.30
2007,06,13,08,26,13.20
2007,06,13,08,27,13.20
2007,06,13,08,28,13.20
2007,06,13,08,29,13.20
2007,06,13,08,30,13.20
2007,06,13,08,31,13.20
2007,06,13,08,32,13.20
2007,06,13,08,33,13.20
2007,06,13,08,34,13.30
2007,06,13,08,35,13.30
2007,06,13,08,36,13.30
2007,06,13,08,37,13.20
2007,06,13,08,38,13.30
2007,06,13,08,39,13.30
2007,06,13,08,40,13.30
2007,06,13,08,41,13.30
2007,06,13,08,42,13.30
2007,06,13,08,43,13.30
2007,06,13,08,44,13.30
2007,06,13,08,45,13.40
2007,06,13,08,46,13.40
2007,06,13,08,47,13.40
2007,06,13,08,48,13.40
2007,06,13,08,49,13.30
2007,06,13,08,50,13.30
2007,06,13,08,51,13.30
2007,06,13,08,52,13.30
2007,06,13,08,53,13.30
2007,06,13,08,54,13.30
2007,06,13,08,55,13.30
2007,06,13,08,56,13.40
2007,06,13,08,57,13.40
2007,06,13,08,58,13.40
2007,06,13,08,59,13.50
2007,06,13,09,00,13.50
2007,06,13,09,01,13.60
2007,06,13,09,02,13.60
2007,06,13,09,03,13.60
2007,06,13,09,04,13.70
2007,06,13,09,05,13.60
2007,06,13,09,06,13.60
2007,06,13,09,07,13.70
2007,06,13,09,08,13.70
2007,06,13,09,09,13.70
2007,06,13,09,10,13.70
2007,06,13,09,11,13.70
2007,06,13,09,12,13.70
2007,06,13,09,13,13.80
2007,06,13,09,14,13.80
2007,06,13,09,15,13.80
2007,06,13,09,16,13.90
2007,06,13,09,17,13.90
2007,06,13,09,18,13.90
2007,06,13,09,19,13.90
2007,06,13,09,20,13.90
2007,06,13,09,21,13.90
2007,06,13,09,22,13.90
2007,06,13,09,23,13.90
2007,06,13,09,24,13.90
2007,06,13,09,25,13.90
2007,06,13,09,26,13.90
2007,06,13,09,27,13.90
2007,06,13,09,28,13.90
2007,06,13,09,29,13.90
2007,06,13,09,30,13.90
2007,06,13,09,31,13.90
2007,06,13,09,32,14.00
2007,06,13,09,33,14.00
2007,06,13,09,34,14.00
2007,06,13,09,35,14.00
2007,06,13,09,36,13.90
2007,06,13,09,37,13.80
2007,06,13,09,38,13.80
2007,06,13,09,39,13.70
2007,06,13,09,40,13.70
2007,06,13,09,41,13.70
2007,06,13,09,42,13.70
2007,06,13,09,43,13.70
2007,06,13,09,44,13.70
2007,06,13,09,45,13.70
2007,06,13,09,46,13.70
2007,06,13,09,47,13.70
2007,06,13,09,48,13.70
2007,06,13,09,49,13.70
2007,06,13,09,50,13.70
2007,06,13,09,51,13.80
2007,06,13,09,52,13.80
2007,06,13,09,53,13.90
2007,06,13,09,54,13.90
2007,06,13,09,55,14.00
2007,06,13,09,56,14.10
2007,06,13,09,57,14.10
2007,06,13,09,58,14.20
2007,06,13,09,59,14.20
2007,06,13,10,00,14.30
2007,06,13,10,01,14.30
2007,06,13,10,02,14.30
2007,06,13,10,03,14.30
2007,06,13,10,04,14.30
2007,06,13,10,05,14.30
2007,06,13,10,06,14.30
2007,06,13,10,07,14.30
2007,06,13,10,08,14.20
2007,06,13,10,09,14.10
2007,06,13,10,10,14.10
2007,06,13,10,11,14.10
2007,06,13,10,12,14.10
2007,06,13,10,13,14.10
2007,06,13,10,14,14.00
2007,06,13,10,15,14.00
2007,06,13,10,16,14.00
2007,06,13,10,17,14.00
2007,06,13,10,18,14.00
2007,06,13,10,19,14.00
2007,06,13,10,20,14.00
2007,06,13,10,21,14.00
2007,06,13,10,22,14.00
2007,06,13,10,23,14.00
2007,06,13,10,24,14.00
2007,06,13,10,25,14.10
2007,06,13,10,26,14.10
2007,06,13,10,27,14.10
2007,06,13,10,28,14.10
2007,06,13,10,29,14.00
2007,06,13,10,30,13.90
2007,06,13,10,31,13.90
2007,06,13,10,32,13.90
2007,06,13,10,33,13.90
2007,06,13,10,34,13.90
2007,06,13,10,35,13.90
2007,06,13,10,36,13.90
2007,06,13,10,37,13.90
2007,06,13,10,38,14.00
2007,06,13,10,39,14.10
2007,06,13,10,40,14.10
2007,06,13,10,41,14.10
2007,06,13,10,42,14.20
2007,06,13,10,43,14.20
2007,06,13,10,44,14.20
2007,06,13,10,45,14.20
2007,06,13,10,46,14.30
2007,06,13,10,47,14.30
2007,06,13,10,48,14.30
2007,06,13,10,49,14.40
2007,06,13,10,50,14.40
2007,06,13,10,51,14.40
2007,06,13,10,52,14.30
2007,06,13,10,53,14.30
2007,06,13,10,54,14.40
2007,06,13,10,55,14.40
2007,06,13,10,56,14.40
2007,06,13,10,57,14.40
2007,06,13,10,58,14.40
2007,06,13,10,59,14.40
2007,06,13,11,00,14.40
2007,06,13,11,01,14.40
2007,06,13,11,02,14.40
2007,06,13,11,03,14.50
2007,06,13,11,04,14.60
2007,06,13,11,05,14.60
2007,06,13,11,06,14.70
2007,06,13,11,07,14.80
2007,06,13,11,08,14.80
2007,06,13,11,09,14.80
2007,06,13,11,10,14.90
2007,06,13,11,11,15.00
2007,06,13,11,12,15.00
2007,06,13,11,13,14.90
2007,06,13,11,14,14.80
2007,06,13,11,15,14.70
2007,06,13,11,16,14.70
2007,06,13,11,17,14.70
2007,06,13,11,18,14.70
2007,06,13,11,19,14.70
2007,06,13,11,20,14.70
2007,06,13,11,21,14.70
2007,06,13,11,22,14.70
2007,06,13,11,23,14.70
2007,06,13,11,24,14.80
2007,06,13,11,25,14.80
2007,06,13,11,26,14.90
2007,06,13,11,27,14.90
2007,06,13,11,28,15.00
2007,06,13,11,29,14.90
2007,06,13,11,30,14.90
2007,06,13,11,31,14.80
2007,06,13,11,32,14.70
2007,06,13,11,33,14.70
2007,06,13,11,34,14.70
2007,06,13,11,35,14.70
2007,06,13,11,36,14.80
2007,06,13,11,37,14.80
2007,06,13,11,38,14.80
2007,06,13,11,39,14.90
2007,06,13,11,40,15.00
2007,06,13,11,41,15.00
2007,06,13,11,42,15.00
2007,06,13,11,43,15.00
2007,06,13,11,44,14.90
2007,06,13,11,45,14.70
2007,06,13,11,46,14.70
2007,06,13,11,47,14.70
2007,06,13,11,48,14.60
2007,06,13,11,49,14.70
2007,06,13,11,50,14.70
2007,06,13,11,51,14.70
2007,06,13,11,52,14.70
2007,06,13,11,53,14.80
2007,06,13,11,54,14.90
2007,06,13,11,55,15.00
2007,06,13,11,56,15.00
2007,06,13,11,57,15.00
2007,06,13,11,58,15.00
2007,06,13,11,59,15.00
2007,06,13,12,00,15.00
2007,06,13,12,01,15.00
2007,06,13,12,02,15.00
2007,06,13,12,03,15.00
2007,06,13,12,04,15.00
2007,06,13,12,05,15.00
2007,06,13,12,06,15.10
2007,06,13,12,07,15.20
2007,06,13,12,08,15.20
2007,06,13,12,09,15.30
2007,06,13,12,10,15.40
2007,06,13,12,11,15.50
2007,06,13,12,12,15.50
2007,06,13,12,13,15.50
2007,06,13,12,14,15.30
2007,06,13,12,15,15.20
2007,06,13,12,16,15.10
2007,06,13,12,17,15.00
2007,06,13,12,18,15.00
2007,06,13,12,19,15.00
2007,06,13,12,20,15.00
2007,06,13,12,21,15.00
2007,06,13,12,22,14.90
2007,06,13,12,23,14.80
2007,06,13,12,24,14.80
2007,06,13,12,25,14.80
2007,06,13,12,26,14.90
2007,06,13,12,27,15.00
2007,06,13,12,28,15.00
2007,06,13,12,29,15.00
2007,06,13,12,30,15.00
2007,06,13,12,31,15.10
2007,06,13,12,32,15.10
2007,06,13,12,33,15.00
2007,06,13,12,34,15.00
2007,06,13,12,35,14.90
2007,06,13,12,36,14.80
2007,06,13,12,37,14.70
2007,06,13,12,38,14.60
2007,06,13,12,39,14.70
2007,06,13,12,40,14.70
2007,06,13,12,41,14.70
2007,06,13,12,42,14.70
2007,06,13,12,43,14.70
2007,06,13,12,44,14.70
2007,06,13,12,45,14.80
2007,06,13,12,46,14.80
2007,06,13,12,47,14.80
2007,06,13,12,48,14.90
2007,06,13,12,49,15.00
2007,06,13,12,50,15.00
2007,06,13,12,51,15.10
2007,06,13,12,52,15.20
2007,06,13,12,53,15.30
2007,06,13,12,54,15.30
2007,06,13,12,55,15.30
2007,06,13,12,56,15.30
2007,06,13,12,57,15.20
2007,06,13,12,58,15.00
2007,06,13,12,59,15.00
2007,06,13,13,00,15.00
2007,06,13,13,01,15.00
2007,06,13,13,02,15.10
2007,06,13,13,03,15.20
2007,06,13,13,04,15.20
2007,06,13,13,05,15.20
2007,06,13,13,06,15.20
2007,06,13,13,07,15.20
2007,06,13,13,08,15.30
2007,06,13,13,09,15.40
2007,06,13,13,10,15.50
2007,06,13,13,11,15.50
2007,06,13,13,12,15.50
2007,06,13,13,13,15.50
2007,06,13,13,14,15.40
2007,06,13,13,15,15.30
2007,06,13,13,16,15.30
2007,06,13,13,17,15.30
2007,06,13,13,18,15.30
2007,06,13,13,19,15.20
2007,06,13,13,20,15.00
2007,06,13,13,21,15.00
2007,06,13,13,22,15.00
2007,06,13,13,23,15.00
2007,06,13,13,24,15.10
2007,06,13,13,25,15.20
2007,06,13,13,26,15.40
2007,06,13,13,27,15.50
2007,06,13,13,28,15.60
2007,06,13,13,29,15.70
2007,06,13,13,30,15.90
2007,06,13,13,31,16.00
2007,06,13,13,32,16.10
2007,06,13,13,33,16.20
2007,06,13,13,34,16.30
2007,06,13,13,35,16.40
2007,06,13,13,36,16.40
2007,06,13,13,37,16.50
2007,06,13,13,38,16.40
2007,06,13,13,39,16.30
2007,06,13,13,40,16.20
2007,06,13,13,41,16.00
2007,06,13,13,42,15.90
2007,06,13,13,43,15.90
2007,06,13,13,44,15.80
2007,06,13,13,45,15.80
2007,06,13,13,46,15.80
2007,06,13,13,47,15.80
2007,06,13,13,48,15.90
2007,06,13,13,49,15.80
2007,06,13,13,50,15.70
2007,06,13,13,51,15.70
2007,06,13,13,52,15.70
2007,06,13,13,53,15.70
2007,06,13,13,54,15.70
2007,06,13,13,55,15.80
2007,06,13,13,56,15.90
2007,06,13,13,57,16.00
2007,06,13,13,58,16.00
2007,06,13,13,59,16.00
2007,06,13,14,00,16.10
2007,06,13,14,01,16.10
2007,06,13,14,02,16.20
2007,06,13,14,03,16.20
2007,06,13,14,04,16.30
2007,06,13,14,05,16.40
2007,06,13,14,06,16.40
2007,06,13,14,07,16.30
2007,06,13,14,08,16.30
2007,06,13,14,09,16.20
2007,06,13,14,10,16.20
2007,06,13,14,11,16.20
2007,06,13,14,12,16.10
2007,06,13,14,13,16.10
2007,06,13,14,14,16.10
2007,06,13,14,15,16.10
2007,06,13,14,16,16.10
2007,06,13,14,17,16.10
2007,06,13,14,18,16.20
2007,06,13,14,19,16.20
2007,06,13,14,20,16.30
2007,06,13,14,21,16.30
2007,06,13,14,22,16.40
2007,06,13,14,23,16.50
2007,06,13,14,24,16.60
2007,06,13,14,25,16.70
2007,06,13,14,26,16.80
2007,06,13,14,27,16.90
2007,06,13,14,28,17.00
2007,06,13,14,29,17.20
2007,06,13,14,30,17.30
2007,06,13,14,31,17.40
2007,06,13,14,32,17.50
2007,06,13,14,33,17.60
2007,06,13,14,34,17.60
2007,06,13,14,35,17.60
2007,06,13,14,36,17.60
2007,06,13,14,37,17.50
2007,06,13,14,38,17.50
2007,06,13,14,39,17.30
2007,06,13,14,40,17.30
2007,06,13,14,41,17.20
2007,06,13,14,42,17.20
2007,06,13,14,43,17.20
2007,06,13,14,44,17.20
2007,06,13,14,45,17.20
2007,06,13,14,46,17.30
2007,06,13,14,47,17.40
2007,06,13,14,48,17.40
2007,06,13,14,49,17.40
2007,06,13,14,50,17.30
2007,06,13,14,51,17.30
2007,06,13,14,52,17.20
2007,06,13,14,53,17.20
2007,06,13,14,54,17.20
2007,06,13,14,55,17.20
2007,06,13,14,56,17.10
2007,06,13,14,57,17.10
2007,06,13,14,58,17.10
2007,06,13,14,59,17.00
2007,06,13,15,00,17.00
2007,06,13,15,01,17.00
2007,06,13,15,02,17.00
2007,06,13,15,03,17.10
2007,06,13,15,04,17.10
2007,06,13,15,05,17.10
2007,06,13,15,06,17.10
2007,06,13,15,07,17.10
2007,06,13,15,08,17.20
2007,06,13,15,09,17.30
2007,06,13,15,10,17.30
2007,06,13,15,11,17.30
2007,06,13,15,12,17.40
2007,06,13,15,13,17.40
2007,06,13,15,14,17.40
2007,06,13,15,15,17.40
2007,06,13,15,16,17.40
2007,06,13,15,17,17.40
2007,06,13,15,18,17.30
2007,06,13,15,19,17.20
2007,06,13,15,20,17.10
2007,06,13,15,21,17.00
2007,06,13,15,22,16.90
2007,06,13,15,23,16.90
2007,06,13,15,24,16.90
2007,06,13,15,25,16.90
2007,06,13,15,26,16.90
2007,06,13,15,27,16.90
2007,06,13,15,28,17.00
2007,06,13,15,29,16.90
2007,06,13,15,30,16.90
2007,06,13,15,31,16.80
2007,06,13,15,32,16.80
2007,06,13,15,33,16.80
2007,06,13,15,34,16.80
2007,06,13,15,35,16.70
2007,06,13,15,36,16.70
2007,06,13,15,37,16.70
2007,06,13,15,38,16.70
2007,06,13,15,39,16.70
2007,06,13,15,40,16.70
2007,06,13,15,41,16.70
2007,06,13,15,42,16.70
2007,06,13,15,43,16.80
2007,06,13,15,44,16.80
2007,06,13,15,45,16.80
2007,06,13,15,46,16.90
2007,06,13,15,47,16.90
2007,06,13,15,48,16.90
2007,06,13,15,49,16.90
2007,06,13,15,50,17.00
2007,06,13,15,51,17.00
2007,06,13,15,52,17.00
2007,06,13,15,53,17.10
2007,06,13,15,54,17.10
2007,06,13,15,55,17.00
2007,06,13,15,56,16.90
2007,06,13,15,57,16.80
2007,06,13,15,58,16.80
2007,06,13,15,59,16.70
2007,06,13,16,00,16.70
2007,06,13,16,01,16.70
2007,06,13,16,02,16.70
2007,06,13,16,03,16.60
2007,06,13,16,04,16.50
2007,06,13,16,05,16.40
2007,06,13,16,06,16.40
2007,06,13,16,07,16.30
2007,06,13,16,08,16.20
2007,06,13,16,09,16.20
2007,06,13,16,10,16.20
2007,06,13,16,11,16.20
2007,06,13,16,12,16.20
2007,06,13,16,13,16.10
2007,06,13,16,14,16.10
2007,06,13,16,15,16.10
2007,06,13,16,16,16.10
2007,06,13,16,17,16.10
2007,06,13,16,18,16.10
2007,06,13,16,19,16.20
2007,06,13,16,20,16.20
2007,06,13,16,21,16.20
2007,06,13,16,22,16.20
2007,06,13,16,23,16.20
2007,06,13,16,24,16.20
2007,06,13,16,25,16.30
2007,06,13,16,26,16.30
2007,06,13,16,27,16.20
2007,06,13,16,28,16.20
2007,06,13,16,29,16.20
2007,06,13,16,30,16.20
2007,06,13,16,31,16.10
2007,06,13,16,32,16.10
2007,06,13,16,33,16.10
2007,06,13,16,34,16.00
2007,06,13,16,35,15.90
2007,06,13,16,36,15.80
2007,06,13,16,37,15.60
2007,06,13,16,38,15.50
2007,06,13,16,39,15.40
2007,06,13,16,40,15.40
2007,06,13,16,41,15.40
2007,06,13,16,42,15.40
2007,06,13,16,43,15.40
2007,06,13,16,44,15.40
2007,06,13,16,45,15.50
2007,06,13,16,46,15.60
2007,06,13,16,47,15.60
2007,06,13,16,48,15.70
2007,06,13,16,49,15.70
2007,06,13,16,50,15.70
2007,06,13,16,51,15.80
2007,06,13,16,52,15.70
2007,06,13,16,53,15.70
2007,06,13,16,54,15.70
2007,06,13,16,55,15.70
2007,06,13,16,56,15.70
2007,06,13,16,57,15.80
2007,06,13,16,58,15.80
2007,06,13,16,59,15.80
2007,06,13,17,00,15.90
2007,06,13,17,01,15.90
2007,06,13,17,02,16.00
2007,06,13,17,03,16.00
2007,06,13,17,04,16.00
2007,06,13,17,05,16.00
2007,06,13,17,06,16.00
2007,06,13,17,07,15.90
2007,06,13,17,08,15.80
2007,06,13,17,09,15.70
2007,06,13,17,10,15.70
2007,06,13,17,11,15.80
2007,06,13,17,12,15.80
2007,06,13,17,13,15.80
2007,06,13,17,14,15.70
2007,06,13,17,15,15.70
2007,06,13,17,16,15.80
2007,06,13,17,17,15.80
2007,06,13,17,18,15.80
2007,06,13,17,19,15.80
2007,06,13,17,20,15.70
2007,06,13,17,21,15.70
2007,06,13,17,22,15.70
2007,06,13,17,23,15.70
2007,06,13,17,24,15.70
2007,06,13,17,25,15.80
2007,06,13,17,26,15.80